[[{"header":{"parameterUnit":"m.s-1","parameterCategory":1,"la1":30.2991,"la2":30.254,"lo1":-89.0895,"lo2":-89.0444,"dy":0.0017,"dx":0.0017,"nx":28,"ny":28,"refTime":"2024-04-09T09:00:00:Z","depth":0,"parameterNumber":2,"parameterNumberName":"U-component_of_WINDS"},"data":[0,0,0,0,0,0,0,0,0,0,0,0,0,0,0,0,0,0,0,0,0,0,0,0,0,0,0,0,0,0,0,0,0,0,0,0,0,0,0,0,0,0,0,0,0,0,0,0,0,0,0,0,0,0,0,0,0,0,-2.9819,-2.9821,0,-3.0022,-3.0024,-3.0027,-3.0157,-3.0157,-3.0158,-3.0159,-3.0365,-3.0369,-3.0374,0,0,0,0,0,0,0,0,0,0,0,0,0,-2.9542,-2.9546,-2.9819,-2.9821,-2.9824,-3.0022,-3.0024,-3.0027,-3.0156,-3.0157,-3.0158,-3.0159,-3.0363,-3.0369,-3.0375,0,0,0,0,0,0,0,0,0,0,0,0,0,-2.9695,-2.9548,-2.9818,-2.9912,-2.9923,-3.0021,-3.0024,-3.0028,-3.0156,-3.0157,-3.0159,-3.016,-3.0361,-3.0368,-3.0375,-3.0396,0,0,-3.0397,-3.04,0,0,0,0,0,0,0,0,-2.9686,-2.9705,-2.9896,-2.9906,-2.9918,-3.0065,-3.0002,-3.0151,-3.0156,-3.0067,-3.0159,-3.016,-3.0264,-3.0279,-3.0315,-3.0405,-3.0414,-3.0398,-3.0402,-3.0405,-3.0407,0,0,0,0,0,0,0,-2.9675,-2.9697,-2.9899,-2.9898,-2.9912,-2.9944,-2.9967,-3.0031,-3.0157,-3.0075,-3.0085,-3.0108,-3.027,-3.0307,-3.032,-3.0417,-3.0398,-3.0404,-3.0408,-3.0411,-3.0535,-3.0534,0,0,0,0,0,0,-2.965,-2.9687,-2.9893,-2.9905,-2.9803,-2.9948,-2.9974,-3.0017,-3.0156,-3.0179,-3.0106,-3.0113,-3.0295,-3.0312,-3.0328,-3.0361,-3.0405,-3.0412,-3.0416,-3.0536,-3.0534,-3.0533,0,0,0,0,0,0,-2.9644,-2.9667,-2.9885,-2.9799,-2.9829,-2.9951,-2.9999,-3.002,-3.0057,-3.018,-3.0203,-3.0121,-3.0296,-3.0318,-3.0378,-3.037,-3.0415,-3.0421,-3.0537,-3.0535,-3.0534,-3.0426,0,0,0,0,0,0,-2.9635,-2.9664,-2.9673,-2.9798,-2.9833,-2.9931,-2.9998,-3.0023,-3.007,-3.008,-3.02,-3.0221,-3.0299,-3.0367,-3.0385,-3.0381,-3.0427,-3.0538,-3.0536,-3.0534,-3.0431,-3.0421,-3.0413,0,0,0,0,0,-2.9625,-2.9635,-2.9673,-2.9697,-2.9847,-2.993,-2.995,-3.004,-3.0068,-3.0078,-3.0157,-3.0217,-3.0368,-3.0372,-3.0394,-3.0391,-3.0539,-3.0537,-3.0534,-3.0435,-3.0423,-3.0413,0,0,0,0,0,0,-2.9505,-2.9653,-2.9697,-2.9748,-2.9825,-2.9952,-2.9967,-3.0025,-3.0096,-3.0102,-3.0211,-3.0237,-3.0286,-3.0345,-3.0346,-3.0418,-3.0461,-3.0462,-3.0377,-3.0367,-3.0358,-3.0342,-3.0433,0,0,0,0,0,-2.9484,-2.954,-2.9666,-2.9698,-2.9735,-2.9844,-2.9884,-2.9946,-3.0031,-3.0064,-3.0148,-3.0227,-3.0293,-3.0333,-3.04,-3.0441,-3.0468,-3.045,-3.044,-3.0432,-3.0432,-3.0458,-3.0451,-3.0526,-3.0526,-3.0526,0,0,-2.9442,-2.953,-2.9558,-2.9676,-2.9744,-2.9798,-2.9871,-2.9926,-2.9967,-3.0073,-3.0134,-3.0198,-3.0294,-3.0344,-3.037,-3.0394,-3.0418,-3.043,-3.0422,-3.0427,-3.0455,-3.0447,-3.0441,-3.0525,-3.0525,-3.0525,0,0,-2.9394,-2.9466,-2.9501,-2.9567,-2.9669,-2.9741,-2.9749,-2.9868,-2.9914,-2.9978,-3.0058,-3.0109,-3.0219,-3.0285,-3.0332,-3.0308,-3.0365,-3.0327,-3.0279,-3.0302,-3.0296,-3.0291,-3.0282,-3.0277,-3.0326,-3.0326,-3.0326,0,-2.9328,-2.9414,-2.9511,-2.9561,-2.961,-2.9709,-2.9745,-2.9805,-2.9922,-2.9954,-2.998,-3.0121,-3.0193,-3.0259,-3.0253,-3.0288,-3.0301,-3.0313,-3.0289,-3.0285,-3.0282,-3.0275,-3.0271,-3.0321,-3.0321,-3.0322,-3.0322,0,-2.9329,-2.9386,-2.9402,-2.9514,-2.9566,-2.9608,-2.9711,-2.9751,-2.9809,-2.9879,-2.9942,-3.0032,-3.0118,-3.0139,-3.0196,-3.0213,-3.0225,-3.0269,-3.0314,-3.0268,-3.0263,-3.0261,-3.0313,-3.0315,-3.0317,-3.0318,0,0,-2.9209,-2.9374,-2.9378,-2.943,-2.955,-2.9596,-2.9643,-2.9729,-2.976,-2.9839,-2.988,-2.9972,-3.0013,-3.0066,-3.0132,-3.0152,-3.0127,-3.0194,-3.0198,-3.0177,-3.0151,-3.0116,-3.0111,-3.0166,-3.0166,-3.0166,-3.0142,0,-2.9178,-2.9267,-2.9356,-2.9413,-2.9468,-2.9563,-2.9604,-2.9681,-2.9747,-2.9803,-2.9876,-2.9939,-2.9989,-3.0022,-3.0046,-3.0124,-3.0123,-3.0128,-3.0205,-3.0207,-3.0177,-3.0109,-3.0073,-3.0046,-3.0141,-3.0141,-3.014,0,-2.9153,-2.9227,-2.9289,-2.9404,-2.943,-2.9465,-2.955,-2.9602,-2.9692,-2.9739,-2.9799,-2.9868,-2.9922,-2.9961,-3.0036,-3.0037,-3.0075,-3.0118,-3.0119,-3.0129,-3.017,-3.0116,-3.004,-3.0035,-3.0138,-3.0138,-3.0139,0,-2.9058,-2.9174,-2.9226,-2.9268,-2.9402,-2.9425,-2.9482,-2.9573,-2.9618,-2.9693,-2.9723,-2.9803,-2.9846,-2.9906,-2.9995,-3.0015,-3.006,-3.0107,-3.01,-3.0097,-3.0104,-3.0102,-3.0032,-3.0129,-3.0129,-3.0129,-3.0129,0,-2.9013,-2.9048,-2.9186,-2.9217,-2.9259,-2.936,-2.9398,-2.9464,-2.9544,-2.959,-2.9678,-2.9719,-2.9835,-2.989,-2.996,-3.0011,-3.003,-3.0069,-3.0087,-3.0061,-3.0056,-3.0086,-3.009,-3.0128,-3.0129,-3.0129,-3.0129,0,-2.8915,-2.9008,-2.9072,-2.9194,-2.9226,-2.925,-2.9355,-2.939,-2.9461,-2.9519,-2.9538,-2.965,-2.9719,-2.9814,-2.9913,-2.9961,-3.0002,-3.0031,-2.9971,-2.9982,-2.9969,-2.9968,-2.9915,-2.9913,-3.0011,-3.001,-3.0009,0,-2.8879,-2.8908,-2.9033,-2.9071,-2.9125,-2.9184,-2.9231,-2.9332,-2.9377,-2.9482,-2.9503,-2.958,-2.9646,-2.9752,-2.9842,-2.9918,-2.995,-2.9926,-2.9961,-2.9934,-2.9948,-2.9945,-2.9948,-2.9916,-2.9915,-2.9913,-2.9912,0,-2.8806,-2.8851,-2.8916,-2.8996,-2.905,-2.9118,-2.919,-2.9216,-2.9332,-2.9378,-2.9451,-2.9502,-2.9603,-2.9677,-2.9765,-2.9824,-2.9887,-2.99,-2.9903,-2.9875,-2.9839,-2.9858,-2.9946,-2.9901,-2.9902,-2.9903,-2.9903,-2.9904,-2.8738,-2.8768,-2.886,-2.8929,-2.8994,-2.906,-2.9098,-2.9174,-2.9236,-2.9326,-2.9382,-2.9452,-2.9541,-2.9666,-2.9722,-2.9778,-2.9803,-2.9806,-2.9807,-2.9806,-2.9796,-2.9831,-2.9794,-2.9795,-2.9795,-2.9795,-2.9796,0,-2.8669,-2.8733,-2.8795,-2.8894,-2.8947,-2.9003,-2.9086,-2.9127,-2.9187,-2.9265,-2.9328,-2.9411,-2.9484,-2.9579,-2.9659,-2.9685,-2.9716,-2.9702,-2.9701,-2.9713,-2.977,-2.976,-2.9676,-2.9676,-2.9676,-2.9676,-2.9676,-2.9676,-2.8639,-2.8692,-2.8748,-2.8834,-2.8898,-2.8967,-2.9009,-2.907,-2.9133,-2.9221,-2.9282,-2.9344,-2.9429,-2.9516,-2.9585,-2.9611,-2.9636,-2.9613,-2.9648,-2.9699,-2.9709,-2.972,-2.971,-2.9618,-2.9618,-2.9587,-2.9587,-2.9586]},{"header":{"parameterUnit":"m.s-1","parameterCategory":1,"la1":30.2991,"la2":30.254,"lo1":-89.0895,"lo2":-89.0444,"dy":0.0017,"dx":0.0017,"nx":28,"ny":28,"refTime":"2024-04-09T09:00:00:Z","depth":0,"parameterNumber":3,"parameterNumberName":"V-component_of_WINDS"},"data":[0,0,0,0,0,0,0,0,0,0,0,0,0,0,0,0,0,0,0,0,0,0,0,0,0,0,0,0,0,0,0,0,0,0,0,0,0,0,0,0,0,0,0,0,0,0,0,0,0,0,0,0,0,0,0,0,0,0,10.2006,10.2008,0,10.2221,10.2223,10.2226,10.2186,10.2182,10.2178,10.2175,10.2386,10.2395,10.2404,0,0,0,0,0,0,0,0,0,0,0,0,0,10.1554,10.1562,10.2005,10.2008,10.2011,10.2221,10.2223,10.2226,10.2186,10.2182,10.2177,10.2173,10.2383,10.2394,10.2405,0,0,0,0,0,0,0,0,0,0,0,0,0,10.1757,10.1565,10.2005,10.2017,10.202,10.222,10.2224,10.2227,10.2187,10.2182,10.2176,10.2171,10.238,10.2393,10.2407,10.2607,0,0,10.2449,10.2455,0,0,0,0,0,0,0,0,10.1746,10.1774,10.2012,10.2016,10.202,10.2171,10.2142,10.2354,10.2189,10.2123,10.2174,10.2168,10.2319,10.2337,10.239,10.2616,10.2626,10.245,10.2459,10.2464,10.2468,0,0,0,0,0,0,0,10.1732,10.1765,10.209,10.2016,10.202,10.2009,10.2031,10.2182,10.225,10.2129,10.2126,10.2153,10.232,10.2377,10.2394,10.2629,10.245,10.2462,10.2471,10.2476,10.3033,10.304,0,0,0,0,0,0,10.1715,10.1753,10.2084,10.2097,10.1866,10.2022,10.2047,10.2128,10.2249,10.2262,10.2158,10.215,10.2356,10.2378,10.2402,10.2647,10.2464,10.2477,10.2485,10.3027,10.3035,10.3042,0,0,0,0,0,0,10.1706,10.1745,10.2075,10.1925,10.1966,10.2036,10.2127,10.2135,10.2192,10.2271,10.2282,10.2204,10.2352,10.2382,10.2557,10.2653,10.2484,10.2496,10.3019,10.3029,10.3038,10.3136,0,0,0,0,0,0,10.1693,10.1742,10.182,10.1927,10.1974,10.2229,10.2133,10.2144,10.2217,10.221,10.2317,10.2329,10.235,10.2537,10.2571,10.2669,10.2507,10.3011,10.3024,10.3035,10.3124,10.3147,10.3167,0,0,0,0,0,10.1677,10.1836,10.1824,10.1864,10.2073,10.2234,10.2261,10.2285,10.2225,10.2303,10.2354,10.2325,10.2637,10.2555,10.2593,10.2697,10.3005,10.302,10.3034,10.3114,10.3143,10.3167,0,0,0,0,0,0,10.1734,10.185,10.1838,10.2036,10.2127,10.2227,10.2327,10.2314,10.242,10.2408,10.243,10.2455,10.2634,10.2682,10.2589,10.2898,10.2812,10.2835,10.286,10.2888,10.2909,10.2894,10.2518,0,0,0,0,0,10.177,10.1894,10.1987,10.2154,10.22,10.2256,10.2327,10.2338,10.2431,10.2468,10.2531,10.262,10.2738,10.2815,10.2928,10.3131,10.3154,10.3221,10.3242,10.326,10.328,10.3393,10.3425,10.309,10.309,10.309,0,0,10.1845,10.1924,10.2,10.2167,10.2238,10.2365,10.2288,10.2424,10.2518,10.2487,10.2658,10.2708,10.2809,10.3,10.3086,10.3046,10.3378,10.3279,10.3292,10.3302,10.3412,10.3443,10.3471,10.31,10.3098,10.3097,0,0,10.2047,10.2119,10.2267,10.2341,10.2451,10.2488,10.2524,10.2628,10.2662,10.2834,10.2815,10.2925,10.3128,10.3202,10.3266,10.3501,10.3479,10.3536,10.365,10.376,10.3787,10.381,10.3896,10.3926,10.3556,10.3556,10.3556,0,10.2126,10.2318,10.2344,10.2484,10.2559,10.2541,10.2691,10.2761,10.2901,10.2952,10.2905,10.3162,10.3228,10.3437,10.3496,10.3547,10.3589,10.3524,10.3781,10.3805,10.3827,10.3909,10.3941,10.3562,10.3562,10.3561,10.356,0,10.241,10.2544,10.265,10.2791,10.2878,10.3021,10.3068,10.3152,10.3156,10.3198,10.3375,10.3455,10.3585,10.3635,10.3638,10.3846,10.3818,10.3776,10.369,10.3865,10.3943,10.3974,10.3572,10.3569,10.3567,10.3566,0,0,10.2652,10.2809,10.2848,10.2913,10.3035,10.3138,10.3281,10.3413,10.3486,10.3583,10.3704,10.3878,10.3842,10.3915,10.3926,10.4023,10.4208,10.397,10.3972,10.4013,10.4444,10.4476,10.4512,10.4194,10.42,10.4205,10.4436,0,10.2867,10.3125,10.3154,10.3383,10.3507,10.3494,10.3619,10.3707,10.3751,10.3861,10.3907,10.4032,10.3973,10.4017,10.4113,10.4165,10.4294,10.4148,10.4307,10.4312,10.4284,10.4552,10.4586,10.48,10.4466,10.4471,10.4475,0,10.3152,10.3264,10.3506,10.3615,10.3668,10.3781,10.3905,10.4011,10.4111,10.4136,10.422,10.422,10.4367,10.4276,10.448,10.4381,10.4447,10.4483,10.4491,10.4508,10.4405,10.4577,10.4869,10.4902,10.4523,10.4519,10.4515,0,10.3308,10.3517,10.3691,10.3747,10.3877,10.3957,10.4014,10.4108,10.4187,10.4294,10.4346,10.4468,10.4535,10.4629,10.4662,10.4592,10.4866,10.4776,10.489,10.489,10.4949,10.4945,10.5257,10.4989,10.4989,10.4988,10.4987,0,10.3546,10.3695,10.3763,10.387,10.4037,10.4068,10.4232,10.4285,10.437,10.4486,10.448,10.4589,10.4626,10.474,10.4767,10.4933,10.4962,10.4986,10.4992,10.4988,10.4986,10.5032,10.5019,10.4997,10.4995,10.4993,10.4992,0,10.3747,10.3799,10.3988,10.4097,10.4128,10.4247,10.434,10.4442,10.4485,10.4633,10.4669,10.4735,10.487,10.4913,10.5074,10.5092,10.5288,10.5279,10.5256,10.5257,10.5369,10.5359,10.5723,10.5774,10.5471,10.5474,10.5476,0,10.3897,10.4012,10.4136,10.4215,10.4277,10.4404,10.4486,10.4521,10.4605,10.473,10.4818,10.4953,10.5062,10.5278,10.534,10.5464,10.5459,10.5579,10.5478,10.5472,10.5464,10.5457,10.547,10.5598,10.5601,10.5603,10.5606,0,10.4157,10.4178,10.4297,10.4427,10.4526,10.4628,10.4727,10.4791,10.4841,10.4936,10.5077,10.5162,10.533,10.5464,10.5592,10.5648,10.5636,10.5637,10.5671,10.5668,10.5651,10.5665,10.5309,10.5629,10.5626,10.5625,10.5623,10.5622,10.4338,10.4442,10.4547,10.468,10.476,10.4853,10.4957,10.5015,10.5133,10.5276,10.5288,10.544,10.5539,10.5709,10.5773,10.5892,10.5857,10.5905,10.5917,10.5929,10.5939,10.5632,10.5914,10.5914,10.5913,10.5913,10.5912,0,10.46,10.4668,10.4791,10.4933,10.5038,10.5021,10.513,10.5219,10.5354,10.5449,10.5559,10.5721,10.5852,10.5926,10.6056,10.6137,10.6135,10.617,10.6165,10.6179,10.5961,10.592,10.617,10.617,10.617,10.617,10.617,10.617,10.4749,10.4924,10.4958,10.5173,10.5239,10.5391,10.5456,10.5542,10.5618,10.5801,10.5912,10.596,10.6047,10.6185,10.6304,10.6322,10.6371,10.6411,10.6425,10.622,10.6194,10.6169,10.6131,10.6421,10.6421,10.6634,10.6636,10.6637]}]]